This demonstration page uses our WeatherBlox Daily Observations layout. Learn more.

Left ArrowRight Arrow

Hourly Observations for February 4, 2019

Temp ( °F °C ) Dew Point ( °F °C ) Humidity (%) Winds ( mph kmh ) Pressure ( in mb ) Visibility ( mi km ) Precip ( " mm )
12:53 am 00:53 Clear 33 0.6 30 -1.1 89 89 N N/A 29.98 1015 10 16.0934 N/A
1:53 am 01:53 Clear 33 0.6 29 -1.7 85 85 E 5 7 29.98 1015 10 16.0934 N/A
2:53 am 02:53 Clear 41 5 37 2.8 86 86 E 5 7 29.97 1015 10 16.0934 N/A
3:53 am 03:53 Clear 40 4.4 37 2.8 89 89 E 5 7 29.96 1015 10 16.0934 N/A
4:53 am 04:53 Clear 40 4.4 37 2.8 89 89 E 7 11 29.96 1014 10 16.0934 N/A
5:53 am 05:53 Clear 39 3.9 36 2.2 89 89 E 6 9 29.97 1015 10 16.0934 N/A
6:53 am 06:53 Clear 39 3.9 36 2.2 89 89 E 6 9 29.96 1015 10 16.0934 N/A
7:53 am 07:53 Sunny 39 3.9 36 2.2 89 89 ESE 3 6 29.97 1015 8 12.87472 N/A
8:53 am 08:53 Sunny 44 6.7 41 5 89 89 ESE 5 7 29.96 1015 10 16.0934 N/A
9:53 am 09:53 Cloudy 49 9.4 44 6.7 83 83 E 7 11 29.96 1014 10 16.0934 N/A
10:53 am 10:53 Mostly Cloudy 53 11.7 46 7.8 77 77 VRB 3 6 29.95 1014 10 16.0934 N/A
11:53 am 11:53 Partly Cloudy 58 14.4 48 8.9 70 70 VRB 3 6 29.93 1014 10 16.0934 N/A
12:15 pm 12:15 Cloudy 59 15 50 10 72 72 VRB 7 11 29.92 1013 10 16.0934 N/A
12:53 pm 12:53 Cloudy 59 15 51 10.6 75 75 SSW 12 19 29.91 1013 10 16.0934 N/A
1:53 pm 13:53 Cloudy with Light Rain 58 14.4 51 10.6 78 78 VRB 6 9 29.89 1012 10 16.0934 N/A
2:53 pm 14:53 Cloudy with Light Rain 55 12.8 53 11.7 93 93 N N/A 29.88 1012 4 6.43736 0.05 1.27
3:02 pm 15:02 Cloudy with Rain 55 12.8 53 11.7 93 93 N N/A 29.87 1012 3 4.82802 0.01 0.254
3:08 pm 15:08 Cloudy with Rain 55 12.8 53 11.7 93 93 S 3 6 29.87 1012 1.75 2.816345 0.03 0.762
3:13 pm 15:13 Cloudy with Rain 55 12.8 53 11.7 93 93 S 3 6 29.86 1011 1.5 2.41401 0.04 1.016
3:20 pm 15:20 Cloudy with Light Rain 55 12.8 53 11.7 93 93 VRB 3 6 29.86 1011 2 3.21868 0.04 1.016
3:29 pm 15:29 Cloudy 55 12.8 53 11.7 93 93 VRB 5 7 29.85 1011 7 11.26538 0.04 1.016
3:53 pm 15:53 Cloudy 56 13.3 53 11.7 90 90 VRB 5 7 29.87 1011 10 16.0934 0.04 1.016
4:23 pm 16:23 Cloudy 56 13.3 53 11.7 90 90 VRB 3 6 29.86 1011 9 14.48406 N/A
4:53 pm 16:53 Cloudy 56 13.3 53 11.7 90 90 VRB 6 9 29.87 1011 9 14.48406 N/A
5:53 pm 17:53 Cloudy with Mist and Fog 56 13.3 53 11.7 90 90 SSW 5 7 29.87 1012 4 6.43736 N/A
6:42 pm 18:42 Cloudy with Mist and Fog 56 13.3 53 11.7 90 90 VRB 3 6 29.87 1012 6 9.65604 N/A
6:53 pm 18:53 Cloudy with Mist and Fog 55 12.8 53 11.7 93 93 SSW 6 9 29.88 1012 4 6.43736 N/A
7:53 pm 19:53 Cloudy with Mist and Fog 55 12.8 53 11.7 93 93 SSW 3 6 29.89 1012 5 8.0467 N/A
8:53 pm 20:53 Cloudy 55 12.8 54 12.2 96 96 SW 3 6 29.89 1012 7 11.26538 N/A
9:53 pm 21:53 Cloudy with Mist and Fog 55 12.8 54 12.2 96 96 VRB 5 7 29.9 1012 6 9.65604 N/A
10:53 pm 22:53 Cloudy with Mist and Fog 55 12.8 54 12.2 96 96 SSW 5 7 29.9 1013 5 8.0467 N/A
11:31 pm 23:31 Cloudy with Light Rain 55 12.8 53 11.7 93 93 SW 3 6 29.91 1013 1.75 2.816345 N/A
11:42 pm 23:42 Cloudy with Light Rain 54 12.2 53 11.7 97 97 N N/A 29.91 1013 2 3.21868 N/A
11:47 pm 23:47 Cloudy with Light Rain 54 12 54 12 100 100 WSW 3 6 29.91 1013 1.5 2.41401 N/A
11:53 pm 23:53 Cloudy with Light Rain 55 12.8 53 11.7 93 93 SW 3 6 29.91 1013 1.25 2.011675 N/A

Powered by AerisWeather